FW4655 Weather Reports


Display with metric or nautical units.
time (UTC)temp
F
wind
direction
speed
MPH
gust
MPH
rain 1hr
in
rain 24hr
in
rain mn
in
humidity
%
barometer
mb
20260902194537 59 219 1.0 3.0 0.10 0.18 0.18 89 1007.5
20260902194015 59 176 1.0 2.0 0.09 0.17 0.17 88 1007.6
20260902193516 59 221 0.0 1.0 0.07 0.15 0.15 88 1007.7
20260902193007 59 204 0.0 2.0 0.06 0.14 0.14 87 1007.9
20260902192506 59 253 0.0 4.0 0.06 0.13 0.13 87 1007.9
20260902192007 59 236 1.0 4.0 0.05 0.12 0.12 87 1007.8
20260902191511 59 252 2.0 4.0 0.05 0.12 0.12 86 1007.7
20260902191007 59 207 1.0 5.0 0.05 0.11 0.11 86 1007.7
20260902190510 59 179 2.0 6.0 0.05 0.11 0.11 85 1007.6
20260902190015 59 254 4.0 8.0 0.05 0.10 0.10 84 1007.7
20260902185511 59 231 3.0 8.0 0.05 0.09 0.09 83 1007.7
20260902185012 59 181 1.0 9.0 0.06 0.09 0.09 84 1007.8
20260902184529 59 255 3.0 9.0 0.05 0.08 0.08 84 1007.8
20260902184014 59 149 2.0 7.0 0.06 0.08 0.08 85 1007.9
20260902183516 59 210 1.0 7.0 0.07 0.08 0.08 84 1008.0
20260902183028 59 224 2.0 5.0 0.07 0.08 0.08 84 1008.2
20260902182516 59 247 2.0 5.0 0.07 0.07 0.07 84 1008.2
20260902182016 60 312 2.0 5.0 0.07 0.07 0.07 83 1008.3
20260902181530 60 269 1.0 5.0 0.07 0.07 0.07 84 1008.4
20260902181008 60 282 0.0 5.0 0.06 0.06 0.06 83 1008.5
20260902180507 60 294 1.0 5.0 0.06 0.06 0.06 82 1008.5
20260902180012 60 289 1.0 5.0 0.05 0.05 0.05 81 1008.5
20260902175508 61 305 1.0 5.0 0.04 0.04 0.04 80 1008.4
20260902175013 61 295 0.0 3.0 0.03 0.03 0.03 79 1008.3
20260902174520 62 29 0.0 3.0 0.03 0.03 0.03 78 1008.2
20260902174015 62 285 0.0 0.0 0.02 0.02 0.02 77 1008.2
20260902173514 63 292 0.0 0.0 0.01 0.01 0.01 74 1008.2
20260902173027 63 301 0.0 0.0 0.01 0.01 0.01 73 1008.1
20260902172514 64 290 0.0 1.0 0.00 0.00 0.00 72 1007.9
20260902172014 64 292 0.0 2.0 0.00 0.00 0.00 69 1007.8
20260902171529 64 302 0.0 3.0 0.00 0.00 0.00 68 1007.7
20260902171018 65 304 1.0 8.0 0.00 0.00 0.00 65 1007.7
20260902170517 65 300 1.0 8.0 0.00 0.00 0.00 64 1007.6
20260902170029 65 302 1.0 5.0 0.00 0.00 0.00 63 1007.6
20260902165518 66 309 2.0 5.0 0.00 0.00 0.00 62 1007.6
20260902165007 66 302 0.0 3.0 0.00 0.00 0.00 61 1007.6
20260902164513 66 217 0.0 8.0 0.00 0.00 0.00 61 1007.5
20260902164011 66 257 0.0 8.0 0.00 0.00 0.00 61 1007.5
20260902163512 66 175 2.0 7.0 0.00 0.00 0.00 61 1007.5
20260902163018 65 259 2.0 7.0 0.00 0.00 0.00 61 1007.5
20260902162511 65 210 3.0 7.0 0.00 0.00 0.00 61 1007.5
20260902162018 65 227 2.0 6.0 0.00 0.00 0.00 63 1007.5
20260902161536 65 223 3.0 6.0 0.00 0.00 0.00 63 1007.5
20260902161016 64 300 1.0 5.0 0.00 0.00 0.00 66 1007.6
20260902160515 64 231 2.0 5.0 0.00 0.00 0.00 66 1007.6
20260902160028 64 154 2.0 7.0 0.00 0.00 0.00 66 1007.7
20260902155517 64 184 3.0 7.0 0.00 0.00 0.00 66 1007.7
20260902155020 64 184 2.0 7.0 0.00 0.00 0.00 66 1007.7
20260902154529 63 191 3.0 7.0 0.00 0.00 0.00 67 1007.7
20260902154016 63 262 2.0 8.0 0.00 0.00 0.00 67 1007.9
20260902153524 63 229 5.0 8.0 0.00 0.00 0.00 67 1007.9
20260902153016 63 236 3.0 9.0 0.00 0.00 0.00 68 1008.0
20260902152511 63 231 4.0 9.0 0.00 0.00 0.00 68 1008.0
20260902152010 63 183 4.0 8.0 0.00 0.00 0.00 68 1008.1
20260902151528 62 153 4.0 9.0 0.00 0.00 0.00 69 1008.1
20260902151014 62 170 5.0 9.0 0.00 0.00 0.00 69 1008.1
20260902150514 62 237 4.0 6.0 0.00 0.00 0.00 69 1008.1
20260902150030 62 165 3.0 6.0 0.00 0.00 0.00 70 1008.2
20260902145517 62 217 2.0 6.0 0.00 0.00 0.00 70 1008.3
20260902145017 62 226 1.0 5.0 0.00 0.00 0.00 70 1008.3
20260902144530 62 214 2.0 5.0 0.00 0.00 0.00 70 1008.3
20260902144018 62 228 2.0 4.0 0.00 0.00 0.00 70 1008.5
20260902143522 62 279 2.0 5.0 0.00 0.00 0.00 70 1008.5
20260902143030 62 164 1.0 5.0 0.00 0.00 0.00 70 1008.5
20260902142519 62 214 0.0 5.0 0.00 0.00 0.00 71 1008.6
20260902142016 61 202 2.0 6.0 0.00 0.00 0.00 71 1008.6
20260902141538 61 229 2.0 6.0 0.00 0.00 0.00 71 1008.7
20260902141012 61 205 3.0 5.0 0.00 0.00 0.00 71 1008.8
20260902140514 61 217 2.0 3.0 0.00 0.00 0.00 71 1008.8
20260902140026 61 231 1.0 2.0 0.00 0.00 0.00 71 1008.9
20260902135516 61 218 0.0 2.0 0.00 0.00 0.00 71 1009.0
20260902135016 61 217 0.0 3.0 0.00 0.00 0.00 70 1009.1
20260902134536 61 221 0.0 3.0 0.00 0.00 0.00 70 1009.1
20260902134013 61 172 1.0 3.0 0.00 0.00 0.00 70 1009.1
20260902133517 61 196 1.0 3.0 0.00 0.00 0.00 70 1009.2
20260902133029 61 234 1.0 4.0 0.00 0.00 0.00 70 1009.3
20260902132520 61 229 1.0 4.0 0.00 0.00 0.00 70 1009.3
20260902132017 61 207 1.0 4.0 0.00 0.00 0.00 70 1009.4
20260902131537 61 195 2.0 4.0 0.00 0.00 0.00 70 1009.5
20260902131016 61 238 0.0 3.0 0.00 0.00 0.00 70 1009.6
20260902130520 61 212 0.0 3.0 0.00 0.00 0.00 70 1009.6
20260902130030 61 229 1.0 3.0 0.00 0.00 0.00 70 1009.7
20260902125520 61 229 0.0 2.0 0.00 0.00 0.00 70 1009.7
20260902125017 61 224 1.0 2.0 0.00 0.00 0.00 70 1009.8
20260902124526 61 197 1.0 2.0 0.00 0.00 0.00 70 1009.8
20260902124015 61 250 0.0 2.0 0.00 0.00 0.00 70 1009.9
20260902123515 61 186 1.0 2.0 0.00 0.00 0.00 70 1010.0
20260902123027 62 283 1.0 3.0 0.00 0.00 0.00 70 1010.1
20260902122520 62 293 1.0 4.0 0.00 0.00 0.00 70 1010.2
20260902122017 62 297 0.0 4.0 0.00 0.00 0.00 70 1010.3
20260902121509 62 217 1.0 4.0 0.00 0.00 0.00 70 1010.3
20260902121004 62 277 1.0 4.0 0.00 0.00 0.00 70 1010.4
20260902120504 62 206 0.0 4.0 0.00 0.00 0.00 70 1010.4
20260902120006 62 253 2.0 6.0 0.00 0.00 0.00 70 1010.5
20260902115507 61 278 3.0 6.0 0.00 0.00 0.00 70 1010.6
20260902115010 61 250 1.0 4.0 0.00 0.00 0.00 71 1010.6
20260902114507 61 213 0.0 1.0 0.00 0.00 0.00 72 1010.7
20260902114003 61 210 0.0 0.0 0.00 0.00 0.00 73 1010.8
20260902113504 61 231 0.0 0.0 0.00 0.00 0.00 73 1010.8
20260902113004 61 221 0.0 0.0 0.00 0.00 0.00 73 1010.8
20260902112503 61 221 0.0 1.0 0.00 0.00 0.00 73 1010.9
20260902112004 61 229 0.0 2.0 0.00 0.00 0.00 73 1011.0
20260902111509 61 235 0.0 2.0 0.00 0.00 0.00 73 1011.0
20260902111007 61 114 0.0 1.0 0.00 0.00 0.00 74 1011.1
20260902110506 61 117 0.0 1.0 0.00 0.00 0.00 73 1011.1
20260902110024 61 162 0.0 3.0 0.00 0.00 0.00 73 1011.1
20260902105506 61 162 0.0 3.0 0.00 0.00 0.00 73 1011.1
20260902105008 61 179 0.0 2.0 0.00 0.00 0.00 73 1011.2
20260902104532 61 234 1.0 2.0 0.00 0.00 0.00 73 1011.2
20260902104007 61 246 1.0 2.0 0.00 0.00 0.00 73 1011.2
20260902103514 61 293 0.0 3.0 0.00 0.00 0.00 73 1011.3
20260902103014 61 292 0.0 3.0 0.00 0.00 0.00 73 1011.3
20260902102503 61 320 1.0 3.0 0.00 0.00 0.00 73 1011.3
20260902102003 61 289 0.0 1.0 0.00 0.00 0.00 73 1011.3
20260902101504 61 296 0.0 5.0 0.00 0.00 0.00 73 1011.4
20260902101006 61 294 0.0 5.0 0.00 0.00 0.00 72 1011.4
20260902100506 61 326 0.0 5.0 0.00 0.00 0.00 73 1011.4
20260902100010 61 318 1.0 5.0 0.00 0.00 0.00 73 1011.5
20260902095508 61 308 1.0 4.0 0.00 0.00 0.00 73 1011.4
20260902095010 61 297 1.0 3.0 0.00 0.00 0.00 73 1011.4
20260902094515 61 24 0.0 7.0 0.00 0.00 0.00 74 1011.5
20260902094008 61 245 1.0 7.0 0.00 0.00 0.00 74 1011.6
20260902093511 61 297 1.0 5.0 0.00 0.00 0.00 74 1011.7
20260902093012 61 285 3.0 5.0 0.00 0.00 0.00 74 1011.7
20260902092508 61 214 0.0 4.0 0.00 0.00 0.00 75 1011.7
20260902092010 61 236 1.0 5.0 0.00 0.00 0.00 75 1011.8
20260902091518 61 280 2.0 5.0 0.00 0.00 0.00 75 1011.9
20260902091011 60 303 0.0 3.0 0.00 0.00 0.00 75 1011.9
20260902090511 61 172 0.0 4.0 0.00 0.00 0.00 75 1011.9
20260902090006 61 300 1.0 4.0 0.00 0.00 0.00 75 1012.0
20260902085509 61 146 0.0 5.0 0.00 0.00 0.00 75 1012.1
20260902085007 61 165 0.0 7.0 0.00 0.00 0.00 75 1012.1
20260902084513 61 229 2.0 7.0 0.00 0.00 0.00 75 1012.1
20260902084011 61 225 1.0 6.0 0.00 0.00 0.00 75 1012.2
20260902083508 61 259 1.0 8.0 0.00 0.00 0.00 75 1012.1
20260902083017 61 282 1.0 8.0 0.00 0.00 0.00 75 1012.1
20260902082512 61 327 0.0 4.0 0.00 0.00 0.00 75 1012.1
20260902082010 61 291 2.0 4.0 0.00 0.00 0.00 75 1012.1
20260902081519 61 285 0.0 2.0 0.00 0.00 0.00 75 1012.0
20260902081011 61 295 1.0 4.0 0.00 0.00 0.00 75 1012.0
20260902080510 62 297 1.0 4.0 0.00 0.00 0.00 75 1011.9
20260902080022 62 290 0.0 4.0 0.00 0.00 0.00 74 1012.0
20260902075511 62 280 1.0 5.0 0.00 0.00 0.00 74 1012.0
20260902075011 62 245 1.0 5.0 0.00 0.00 0.00 74 1012.0
20260902074519 62 307 2.0 5.0 0.00 0.00 0.00 73 1012.1
20260902074007 62 302 0.0 5.0 0.00 0.00 0.00 73 1012.1
20260902073508 62 253 1.0 5.0 0.00 0.00 0.00 73 1012.2
20260902073013 62 233 2.0 6.0 0.00 0.00 0.00 73 1012.2
20260902072508 63 294 1.0 6.0 0.00 0.00 0.00 72 1012.2
20260902072009 63 302 2.0 5.0 0.00 0.00 0.00 72 1012.3
20260902071530 63 317 2.0 5.0 0.00 0.00 0.00 72 1012.4
20260902071014 63 285 1.0 3.0 0.00 0.00 0.00 72 1012.4
20260902070514 63 216 1.0 7.0 0.00 0.00 0.00 72 1012.4
20260902070024 63 254 2.0 8.0 0.00 0.00 0.00 72 1012.5
20260902065513 62 280 3.0 8.0 0.00 0.00 0.00 72 1012.5
20260902065013 62 269 2.0 5.0 0.00 0.00 0.00 72 1012.5
20260902064522 62 229 1.0 5.0 0.00 0.00 0.00 72 1012.6
20260902064015 62 247 2.0 6.0 0.00 0.00 0.00 72 1012.6
20260902063514 62 314 2.0 6.0 0.00 0.00 0.00 72 1012.6
20260902063028 62 291 2.0 4.0 0.00 0.00 0.00 71 1012.5
20260902062512 63 295 1.0 7.0 0.00 0.00 0.00 71 1012.5
20260902062008 63 288 1.0 7.0 0.00 0.00 0.00 71 1012.4
20260902061515 63 265 3.0 7.0 0.00 0.00 0.00 70 1012.4
20260902061022 63 150 2.0 5.0 0.00 0.00 0.00 70 1012.3
20260902060511 63 251 0.0 4.0 0.00 0.00 0.00 70 1012.4
20260902060019 63 254 0.0 7.0 0.00 0.00 0.00 70 1012.5
20260902055514 63 291 2.0 7.0 0.00 0.00 0.00 70 1012.5
20260902055014 63 153 1.0 4.0 0.00 0.00 0.00 69 1012.5
20260902054527 64 294 1.0 4.0 0.00 0.00 0.00 69 1012.6
20260902054015 64 299 1.0 5.0 0.00 0.00 0.00 69 1012.7
20260902053513 64 260 0.0 5.0 0.00 0.00 0.00 69 1012.8
20260902053027 64 287 3.0 5.0 0.00 0.00 0.00 69 1012.7
20260902052513 64 306 1.0 6.0 0.00 0.00 0.00 69 1012.8
20260902052012 64 307 2.0 7.0 0.00 0.00 0.00 69 1012.8
20260902051528 64 330 2.0 7.0 0.00 0.00 0.00 69 1012.8
20260902051018 64 304 2.0 6.0 0.00 0.00 0.00 69 1012.7
20260902050516 64 300 2.0 5.0 0.00 0.00 0.00 69 1012.7
20260902050022 64 284 2.0 5.0 0.00 0.00 0.00 69 1012.7
20260902045512 64 309 1.0 5.0 0.00 0.00 0.00 69 1012.6
20260902045012 64 288 0.0 7.0 0.00 0.00 0.00 69 1012.7
20260902044537 64 299 3.0 8.0 0.00 0.00 0.00 69 1012.7
20260902044015 64 309 4.0 8.0 0.00 0.00 0.00 69 1012.7
20260902043516 64 276 2.0 8.0 0.00 0.00 0.00 69 1012.7
20260902043029 64 274 3.0 8.0 0.00 0.00 0.00 69 1012.6
20260902042516 64 298 3.0 6.0 0.00 0.00 0.00 69 1012.6
20260902042014 64 298 3.0 6.0 0.00 0.00 0.00 68 1012.5
20260902041530 64 318 2.0 6.0 0.00 0.00 0.00 68 1012.5
20260902041018 64 275 2.0 5.0 0.00 0.00 0.00 68 1012.6
20260902040514 64 271 2.0 5.0 0.00 0.00 0.00 68 1012.6
20260902040031 64 291 2.0 5.0 0.00 0.00 0.00 68 1012.6
20260902035516 65 36 1.0 5.0 0.00 0.00 0.00 68 1012.5
20260902035015 65 296 1.0 4.0 0.00 0.00 0.00 67 1012.5
20260902034532 65 309 1.0 6.0 0.00 0.00 0.00 67 1012.5
20260902034012 65 268 1.0 6.0 0.00 0.00 0.00 67 1012.5
20260902033513 65 310 1.0 7.0 0.00 0.00 0.00 67 1012.5
20260902033024 65 310 3.0 7.0 0.00 0.00 0.00 67 1012.4
20260902032518 65 308 2.0 6.0 0.00 0.00 0.00 66 1012.3
20260902032015 65 6 2.0 7.0 0.00 0.00 0.00 66 1012.4
20260902031515 65 311 2.0 7.0 0.00 0.00 0.00 66 1012.4
20260902031003 65 301 2.0 7.0 0.00 0.00 0.00 66 1012.4
20260902030508 65 274 2.0 6.0 0.00 0.00 0.00 66 1012.4
20260902030011 66 344 1.0 7.0 0.00 0.00 0.00 66 1012.3
20260902025509 66 282 2.0 9.0 0.00 0.00 0.00 65 1012.3
20260902025010 66 319 2.0 9.0 0.00 0.00 0.00 65 1012.3
20260902024516 66 297 3.0 7.0 0.00 0.00 0.00 65 1012.2
20260902024012 66 289 2.0 7.0 0.00 0.00 0.00 65 1012.2
20260902023513 66 286 1.0 7.0 0.00 0.00 0.00 65 1012.2
20260902023024 66 316 3.0 9.0 0.00 0.00 0.00 64 1012.3
20260902022513 66 312 2.0 9.0 0.00 0.00 0.00 64 1012.2
20260902022013 67 292 3.0 6.0 0.00 0.00 0.00 64 1012.3
20260902021540 67 190 2.0 6.0 0.00 0.00 0.00 63 1012.1
20260902021016 67 292 3.0 6.0 0.00 0.00 0.00 63 1012.1
20260902020504 67 341 3.0 7.0 0.00 0.00 0.00 63 1012.1
20260902020010 67 347 2.0 7.0 0.00 0.00 0.00 63 1012.1
20260902015506 67 302 3.0 7.0 0.00 0.00 0.00 63 1012.2
20260902015008 68 307 2.0 8.0 0.00 0.00 0.00 62 1012.1
20260902014529 68 308 1.0 8.0 0.00 0.00 0.00 62 1012.1
20260902014008 68 44 2.0 8.0 0.00 0.00 0.00 62 1012.1
20260902013508 68 262 2.0 7.0 0.00 0.00 0.00 62 1012.0
20260902013018 68 321 3.0 6.0 0.00 0.00 0.00 61 1012.0
20260902012511 68 114 3.0 11.0 0.00 0.00 0.00 61 1011.9
20260902012016 68 344 2.0 11.0 0.00 0.00 0.00 60 1011.9
20260902011524 68 286 3.0 6.0 0.00 0.00 0.00 60 1011.9
20260902011016 68 226 2.0 7.0 0.00 0.00 0.00 60 1011.9
20260902010514 68 288 3.0 7.0 0.00 0.00 0.00 60 1011.9
20260902010030 69 310 3.0 7.0 0.00 0.00 0.00 60 1011.9
20260902005516 69 284 2.0 5.0 0.00 0.00 0.00 60 1011.8
20260902005015 69 270 3.0 5.0 0.00 0.00 0.00 59 1011.9
20260902004508 70 8 1.0 6.0 0.00 0.00 0.00 59 1011.8
20260902004007 70 295 3.0 13.0 0.00 0.00 0.00 59 1011.8
20260902003508 70 300 4.0 13.0 0.00 0.00 0.00 58 1011.6
20260902003014 71 295 3.0 8.0 0.00 0.00 0.00 56 1011.6
20260902002510 72 303 5.0 9.0 0.00 0.00 0.00 56 1011.6
20260902002012 72 274 3.0 9.0 0.00 0.00 0.00 56 1011.5
20260902001518 72 296 3.0 9.0 0.00 0.00 0.00 56 1011.6
20260902001012 71 91 4.0 9.0 0.00 0.00 0.00 56 1011.5
20260902000511 72 299 3.0 9.0 0.00 0.00 0.00 56 1011.6
20260902000035 72 319 4.0 8.0 0.00 0.00 0.00 56 1011.5
20260901235517 71 303 2.0 9.0 0.00 0.00 0.00 58 1011.6
20260901235012 70 67 4.0 10.0 0.00 0.00 0.00 58 1011.7
20260901234546 70 323 4.0 10.0 0.00 0.00 0.00 58 1011.8
20260901234014 70 309 3.0 6.0 0.00 0.00 0.00 59 1011.7
20260901233517 70 303 3.0 10.0 0.00 0.00 0.00 60 1011.7
20260901233031 70 28 2.0 10.0 0.00 0.00 0.00 60 1011.8
20260901232508 69 347 1.0 6.0 0.00 0.00 0.00 61 1011.9
20260901232010 69 307 3.0 8.0 0.00 0.00 0.00 60 1011.9
20260901231516 69 312 3.0 8.0 0.00 0.00 0.00 60 1011.9
20260901231009 70 290 3.0 6.0 0.00 0.00 0.00 60 1011.9
20260901230513 69 295 2.0 9.0 0.00 0.00 0.00 60 1012.0
20260901230025 69 305 3.0 10.0 0.00 0.00 0.00 60 1012.0
20260901225514 69 18 3.0 10.0 0.00 0.00 0.00 60 1012.1
20260901225014 69 257 4.0 8.0 0.00 0.00 0.00 59 1012.1
20260901224530 69 65 3.0 6.0 0.00 0.00 0.00 60 1012.2
20260901224016 69 328 3.0 6.0 0.00 0.00 0.00 60 1012.2
20260901223517 69 342 3.0 6.0 0.00 0.00 0.00 59 1012.2
20260901223028 70 297 3.0 6.0 0.00 0.00 0.00 60 1012.2
20260901222518 70 266 1.0 7.0 0.00 0.00 0.00 60 1012.2
20260901222016 70 308 2.0 8.0 0.00 0.00 0.00 60 1012.2
20260901221558 70 35 3.0 8.0 0.00 0.00 0.00 59 1012.1
20260901221020 70 322 2.0 7.0 0.00 0.00 0.00 60 1012.2
20260901220510 70 303 3.0 10.0 0.00 0.00 0.00 60 1012.1
20260901220016 69 359 4.0 10.0 0.00 0.00 0.00 61 1012.1
20260901215514 69 20 3.0 6.0 0.00 0.00 0.00 61 1012.2
20260901215015 68 343 3.0 7.0 0.00 0.00 0.00 61 1012.3
20260901214525 68 40 3.0 7.0 0.00 0.00 0.00 61 1012.2
20260901214013 68 10 3.0 6.0 0.00 0.00 0.00 61 1012.2
20260901213514 68 359 1.0 5.0 0.00 0.00 0.00 61 1012.3
20260901213026 68 26 2.0 5.0 0.00 0.00 0.00 61 1012.3
20260901212516 68 312 2.0 8.0 0.00 0.00 0.00 61 1012.3
20260901212019 68 266 1.0 8.0 0.00 0.00 0.00 62 1012.3
20260901211535 68 51 3.0 8.0 0.00 0.00 0.00 62 1012.3
20260901211017 68 328 2.0 8.0 0.00 0.00 0.00 61 1012.3
20260901210523 68 269 3.0 7.0 0.00 0.00 0.00 61 1012.4
20260901210033 68 306 1.0 6.0 0.00 0.00 0.00 62 1012.4
20260901205519 68 307 2.0 6.0 0.00 0.00 0.00 62 1012.4
20260901205017 68 283 3.0 6.0 0.00 0.00 0.00 61 1012.3
20260901204531 68 233 2.0 6.0 0.00 0.00 0.00 62 1012.4
20260901204014 68 7 2.0 6.0 0.00 0.00 0.00 63 1012.5
20260901203514 68 314 1.0 7.0 0.00 0.00 0.00 64 1012.5
20260901203044 67 191 4.0 7.0 0.00 0.00 0.00 65 1012.5
20260901202516 67 266 2.0 5.0 0.00 0.00 0.00 65 1012.5
20260901202019 67 1 2.0 5.0 0.00 0.00 0.00 66 1012.5
20260901201537 66 34 3.0 5.0 0.00 0.00 0.00 66 1012.5
20260901201014 66 283 1.0 4.0 0.00 0.00 0.00 68 1012.5
20260901200516 66 271 0.0 4.0 0.00 0.00 0.00 68 1012.6
20260901200032 66 271 1.0 4.0 0.00 0.00 0.00 68 1012.7
20260901195520 66 305 1.0 3.0 0.00 0.00 0.00 67 1012.6
20260901195018 67 253 1.0 4.0 0.00 0.00 0.00 67 1012.6